When you browse on this site, cookies collect data to enhance your experience and personalize the content and advertising you see.
Visit our Privacy Policy to learn more. By continuing to use the site, you agree to this use of cookies and data.
  • In Latvia
  • List of Countries
  • For 7 days
  • Water Temperature
  • Satellite Maps
  • Weather Map
  • Weather Widgets
  • user-avatar
    Login

    Hourly Weather Natitingou

    Today, 24 March, Sunday

    Time Temperature Precipitation Wind Pressure Humidity
    00:00 +29°C° 0 mm 0 mps 716 mmHg 22%
    01:00 +28°C° 0 mm 0 mps 716 mmHg 23%
    02:00 +28°C° 0 mm 0 mps 715 mmHg 24%
    03:00 +27°C° 0 mm 0 mps 715 mmHg 25%
    04:00 +27°C° 0 mm 0 mps 715 mmHg 27%
    05:00 +26°C° 0 mm 0 mps 715 mmHg 29%
    06:00 +26°C° 0 mm 0 mps 716 mmHg 31%
    07:00 +30°C° 0 mm 1 mps 716 mmHg 30%
    08:00 +33°C° 0 mm 1 mps 717 mmHg 30%
    09:00 +36°C° 0 mm 2 mps 718 mmHg 29%
    10:00 +39°C° 0 mm 1 mps 717 mmHg 23%
    11:00 +42°C° 0 mm 1 mps 717 mmHg 17%
    12:00 +44°C° 0 mm 1 mps 717 mmHg 11%
    13:00 +45°C° 0 mm 1 mps 717 mmHg 10%
    14:00 +45°C° 0 mm 1 mps 716 mmHg 9%
    15:00 +42°C° 0 mm 0 mps 715 mmHg 8%
    16:00 +40°C° 0 mm 0 mps 715 mmHg 8%
    17:00 +38°C° 0 mm 0 mps 715 mmHg 9%
    18:00 +35°C° 0 mm 0 mps 714 mmHg 10%
    19:00 +34°C° 0 mm 0 mps 715 mmHg 10%
    20:00 +33°C° 0 mm 0 mps 715 mmHg 10%
    21:00 +34°C° 0 mm 1 mps 716 mmHg 11%
    22:00 +33°C° 0 mm 1 mps 716 mmHg 14%
    23:00 +32°C° 0 mm 1 mps 716 mmHg 17%

    Tomorrow, 25 March, Monday

    Time Temperature Precipitation Wind Pressure Humidity
    00:00 +32°C° 0 mm 1 mps 716 mmHg 20%
    01:00 +31°C° 0 mm 1 mps 715 mmHg 26%
    02:00 +31°C° 0 mm 1 mps 715 mmHg 33%
    03:00 +30°C° 0 mm 2 mps 715 mmHg 40%
    04:00 +30°C° 0 mm 2 mps 715 mmHg 43%
    05:00 +29°C° 0 mm 2 mps 715 mmHg 47%
    06:00 +29°C° 0 mm 3 mps 715 mmHg 51%
    07:00 +30°C° 0 mm 3 mps 716 mmHg 50%
    08:00 +33°C° 0 mm 3 mps 717 mmHg 49%
    09:00 +35°C° 0 mm 2 mps 717 mmHg 48%
    10:00 +37°C° 0 mm 2 mps 717 mmHg 40%
    11:00 +39°C° 0 mm 2 mps 717 mmHg 32%
    12:00 +41°C° 0 mm 2 mps 717 mmHg 25%
    13:00 +42°C° 0 mm 2 mps 716 mmHg 22%
    14:00 +43°C° 0 mm 1 mps 715 mmHg 19%
    15:00 +41°C° 0 mm 0 mps 714 mmHg 16%
    16:00 +42°C° 0 mm 1 mps 714 mmHg 18%
    17:00 +41°C° 0 mm 1 mps 714 mmHg 19%
    18:00 +39°C° 0 mm 1 mps 713 mmHg 21%
    19:00 +38°C° 0 mm 2 mps 714 mmHg 25%
    20:00 +37°C° 0 mm 2 mps 715 mmHg 28%
    21:00 +36°C° 0 mm 2 mps 716 mmHg 32%
    22:00 +36°C° 0 mm 3 mps 716 mmHg 34%
    23:00 +35°C° 0 mm 3 mps 716 mmHg 37%

    Day after tomorrow, 26 March, Tuesday

    Time Temperature Precipitation Wind Pressure Humidity
    00:00 +34°C° 0 mm 3 mps 716 mmHg 40%
    01:00 +33°C° 0 mm 3 mps 716 mmHg 47%
    02:00 +31°C° 0 mm 3 mps 715 mmHg 55%
    03:00 +30°C° 0 mm 4 mps 715 mmHg 62%
    04:00 +29°C° 0 mm 3 mps 715 mmHg 64%
    05:00 +29°C° 0 mm 3 mps 715 mmHg 66%
    06:00 +29°C° 0 mm 3 mps 715 mmHg 67%
    07:00 +30°C° 0 mm 3 mps 716 mmHg 63%
    08:00 +31°C° 0 mm 3 mps 717 mmHg 58%
    09:00 +33°C° 0 mm 3 mps 717 mmHg 54%
    10:00 +35°C° 0 mm 3 mps 717 mmHg 47%
    11:00 +37°C° 0 mm 2 mps 717 mmHg 40%
    12:00 +39°C° 0 mm 2 mps 717 mmHg 33%
    13:00 +40°C° 0 mm 2 mps 716 mmHg 30%
    14:00 +40°C° 0 mm 2 mps 715 mmHg 28%
    15:00 +40°C° 0 mm 2 mps 714 mmHg 25%
    16:00 +40°C° 0 mm 2 mps 715 mmHg 26%
    17:00 +39°C° 0 mm 2 mps 715 mmHg 27%
    18:00 +38°C° 0 mm 2 mps 715 mmHg 28%
    19:00 +36°C° 0.1 mm 1 mps 715 mmHg 31%
    20:00 +35°C° 0.1 mm 1 mps 716 mmHg 33%
    21:00 +34°C° 0.1 mm 1 mps 717 mmHg 36%
    22:00 +33°C° 0 mm 1 mps 716 mmHg 38%
    23:00 +33°C° 0 mm 1 mps 716 mmHg 41%

    27 March, Wednesday

    Time Temperature Precipitation Wind Pressure Humidity
    00:00 +32°C° 0 mm 2 mps 716 mmHg 43%
    01:00 +32°C° 0 mm 2 mps 716 mmHg 47%
    02:00 +31°C° 0 mm 2 mps 715 mmHg 51%
    03:00 +31°C° 0 mm 3 mps 715 mmHg 55%
    04:00 +30°C° 0 mm 3 mps 716 mmHg 57%
    05:00 +30°C° 0 mm 3 mps 716 mmHg 60%
    06:00 +29°C° 0 mm 3 mps 716 mmHg 63%
    07:00 +31°C° 0 mm 3 mps 717 mmHg 59%
    08:00 +32°C° 0 mm 2 mps 718 mmHg 55%
    09:00 +34°C° 0 mm 2 mps 718 mmHg 51%
    10:00 +37°C° 0 mm 2 mps 718 mmHg 43%
    11:00 +40°C° 0 mm 1 mps 718 mmHg 36%
    12:00 +43°C° 0 mm 1 mps 718 mmHg 28%
    13:00 +42°C° 0 mm 1 mps 717 mmHg 28%
    14:00 +41°C° 0 mm 1 mps 716 mmHg 29%
    15:00 +40°C° 0 mm 1 mps 715 mmHg 29%
    16:00 +39°C° 0 mm 1 mps 716 mmHg 30%
    17:00 +39°C° 0 mm 1 mps 716 mmHg 31%
    18:00 +37°C° 0 mm 1 mps 716 mmHg 32%
    19:00 +36°C° 0 mm 1 mps 716 mmHg 34%
    20:00 +35°C° 0 mm 1 mps 717 mmHg 36%
    21:00 +35°C° 0 mm 1 mps 717 mmHg 38%
    22:00 +34°C° 0 mm 1 mps 717 mmHg 41%
    23:00 +33°C° 0 mm 1 mps 716 mmHg 44%

    28 March, Thursday

    Time Temperature Precipitation Wind Pressure Humidity
    00:00 +33°C° 0 mm 1 mps 716 mmHg 47%
    01:00 +32°C° 0 mm 1 mps 716 mmHg 49%
    02:00 +30°C° 0 mm 0 mps 715 mmHg 51%
    03:00 +29°C° 0 mm 0 mps 715 mmHg 54%
    04:00 +31°C° 0.5 mm 1 mps 716 mmHg 57%
    05:00 +30°C° 0.5 mm 2 mps 716 mmHg 59%
    06:00 +30°C° 0.5 mm 3 mps 717 mmHg 62%
    07:00 +31°C° 0.1 mm 3 mps 718 mmHg 60%
    08:00 +33°C° 0.1 mm 3 mps 718 mmHg 57%
    09:00 +34°C° 0.1 mm 3 mps 718 mmHg 54%
    10:00 +35°C° 0 mm 3 mps 718 mmHg 49%
    11:00 +37°C° 0 mm 3 mps 717 mmHg 43%
    12:00 +39°C° 0 mm 2 mps 717 mmHg 38%
    13:00 +39°C° 0 mm 2 mps 716 mmHg 36%
    14:00 +39°C° 0 mm 2 mps 715 mmHg 35%
    15:00 +38°C° 0 mm 2 mps 714 mmHg 34%
    16:00 +38°C° 0 mm 2 mps 715 mmHg 36%
    17:00 +37°C° 0 mm 2 mps 715 mmHg 37%
    18:00 +37°C° 0 mm 2 mps 715 mmHg 38%
    19:00 +36°C° 0 mm 2 mps 716 mmHg 39%
    20:00 +36°C° 0 mm 2 mps 716 mmHg 39%
    21:00 +34°C° 0 mm 1 mps 716 mmHg 40%
    22:00 +34°C° 0 mm 1 mps 716 mmHg 40%
    23:00 +34°C° 0 mm 1 mps 716 mmHg 41%

    29 March, Friday

    Time Temperature Precipitation Wind Pressure Humidity
    00:00 +33°C° 0 mm 1 mps 716 mmHg 41%
    01:00 +34°C° 0 mm 2 mps 716 mmHg 43%
    02:00 +32°C° 0 mm 2 mps 715 mmHg 46%
    03:00 +32°C° 0 mm 2 mps 715 mmHg 48%
    04:00 +31°C° 0 mm 2 mps 716 mmHg 52%
    05:00 +31°C° 0 mm 2 mps 716 mmHg 55%
    06:00 +30°C° 0 mm 2 mps 716 mmHg 58%
    07:00 +32°C° 0 mm 2 mps 717 mmHg 54%
    08:00 +34°C° 0 mm 2 mps 717 mmHg 50%
    09:00 +36°C° 0 mm 3 mps 718 mmHg 46%
    10:00 +38°C° 0 mm 2 mps 717 mmHg 39%
    11:00 +40°C° 0 mm 2 mps 717 mmHg 32%
    12:00 +43°C° 0 mm 1 mps 716 mmHg 26%
    13:00 +44°C° 0 mm 1 mps 716 mmHg 23%
    14:00 +45°C° 0 mm 1 mps 715 mmHg 20%
    15:00 +43°C° 0 mm 0 mps 714 mmHg 16%
    16:00 +44°C° 0 mm 1 mps 714 mmHg 18%
    17:00 +42°C° 0 mm 1 mps 714 mmHg 20%
    18:00 +40°C° 0 mm 1 mps 714 mmHg 21%
    19:00 +40°C° 0 mm 1 mps 715 mmHg 23%
    20:00 +39°C° 0 mm 1 mps 715 mmHg 25%
    21:00 +37°C° 0 mm 1 mps 715 mmHg 27%
    22:00 +37°C° 0 mm 1 mps 715 mmHg 29%
    23:00 +36°C° 0 mm 1 mps 715 mmHg 32%
    Show more